Regional Weather Roundup
Issued by NWS

Home | Current Version | Previous Version | Graphics & Text | Print | Product List | Glossary On
Versions: 1 2 3 4 5 6 7 8 9 10 11 12 13 14 15 16 17 18 19 20 21 22 23 24 25 26 27 28 29 30 31 32 33 34 35 36 37 38 39 40 41 42 43 44 45 46 47 48 49 50
000
ASUS45 KCYS 261810
RWRWY

WYOMING REGIONAL WEATHER ROUNDUP
NATIONAL WEATHER SERVICE CHEYENNE WY
1100 AM MST FRI DEC 26 2014

NOTE:  "FAIR" INDICATES FEW OR NO CLOUDS BELOW 12,000 FEET
WITH NO SIGNIFICANT WEATHER AND/OR OBSTRUCTIONS TO VISIBILITY.

WYZ001-261900-
YELLOWSTONE NATIONAL PARK

CITY           SKY/WX    TMP DP  RH WIND       PRES   REMARKS
LK YELLOWSTONE   N/A      8   5  87 E6        29.92S WCI  -2
6HR MIN TEMP: -10; 6HR MAX TEMP:  10;

W YELLOWSTONE  NOT AVBL

$$
WYZ002>013-054>058-071-098>099-261900-
NORTHERN WYOMING

CITY           SKY/WX    TMP DP  RH WIND       PRES   REMARKS
JACKSON        MOSUNNY   10   5  79 CALM      29.94R
CODY           PTSUNNY   19  12  73 CALM      30.00F
GREYBULL       CLOUDY    15  12  88 SE6       30.08S WCI   6
6HR MIN TEMP:  11; 6HR MAX TEMP:  17; 6HR PCP: TRACE;

WORLAND        LGT SNOW  16  13  88 SW3       30.05S VSB 1
6HR MIN TEMP:   7; 6HR MAX TEMP:  16; 6HR PCP: TRACE;

SHERIDAN       FAIR      10   4  76 N3        30.04F
6HR MIN TEMP:   4; 6HR MAX TEMP:  20;

BUFFALO        FAIR      18  12  77 CALM      29.99F
6HR MIN TEMP:   9; 6HR MAX TEMP:  18;

GILLETTE       CLOUDY    18  12  77 NE5       30.03S WCI  11
6HR MIN TEMP:  17; 6HR MAX TEMP:  18; 6HR PCP: TRACE;

HULETT           N/A    N/A N/A N/A MISG        N/A
NEWCASTLE      LGT SNOW  19  14  79 SW3       30.04S

$$
WYZ014>020-022>026-101>103-261900-
CENTRAL WYOMING

CITY           SKY/WX    TMP DP  RH WIND       PRES   REMARKS
BIG PINEY      LGT SNOW   9   6  88 N3        29.90R FOG
6HR MIN TEMP:   1; 6HR MAX TEMP:   9; 6HR PCP: TRACE;

PINEDALE       FAIR      10   9  92 CALM      29.90S
DUBOIS         NOT AVBL
LANDER         LGT SNOW  17  13  84 W3        29.97F FOG
6HR MIN TEMP:  14; 6HR MAX TEMP:  17; 6HR PCP:  0.02;

RIVERTON       FLURRIES  18  13  80 CALM      29.98F
6HR MIN TEMP:  13; 6HR MAX TEMP:  18; 6HR PCP:  0.01;

CASPER         LGT SNOW  17  12  80 N5        29.98F WCI  10
6HR MIN TEMP:  12; 6HR MAX TEMP:  17; 6HR PCP:  0.03;

DOUGLAS        CLOUDY    16  12  84 CALM      30.01F
6HR MIN TEMP:  12; 6HR MAX TEMP:  16; 6HR PCP: TRACE;


$$
WYZ021-027>030-104>119-261900-
SOUTHERN WYOMING

CITY           SKY/WX    TMP DP  RH WIND       PRES   REMARKS
EVANSTON       LGT SNOW  18  10  71 CALM      29.88R
6HR MIN TEMP:  11; 6HR MAX TEMP:  18; 6HR PCP: TRACE;

FORT BRIDGER   MOCLDY    18  13  83 S3        29.92R
ROCK SPRINGS   CLOUDY    16   9  74 NE12      29.89R WCI   3
6HR MIN TEMP:  12; 6HR MAX TEMP:  16; 6HR PCP: TRACE;

DIXON          LGT SNOW  20  15  79 SW3       29.84S
RAWLINS        CLOUDY    12   6  77 NE14      29.87S WCI  -3
6HR MIN TEMP:  10; 6HR MAX TEMP:  12; 6HR PCP: TRACE;

SARATOGA       LGT SNOW  14  10  85 CALM      29.83S
LARAMIE        CLOUDY     9   5  84 W3        29.83F
6HR MIN TEMP:   3; 6HR MAX TEMP:  10; 6HR PCP:  0.01;

CHEYENNE       CLOUDY    16   8  71 VRB3      29.91F
6HR MIN TEMP:  11; 6HR MAX TEMP:  16; 6HR PCP:  0.04;

TORRINGTON     LGT SNOW  20  15  81 CALM      30.03F VSB 3/4
6HR MIN TEMP:  15; 6HR MAX TEMP:  20; 6HR PCP: TRACE;

PINE BLUFFS    LGT SNOW  16  12  86 NE6       29.98S WCI   7

$$



USA.gov is the U.S. government's official web portal to all federal, state and local government web resources and services.